• In Russia
  • List of Countries
  • For 7 days
  • Water Temperature
  • Satellite Maps
  • Weather Map
  • Weather Widgets
  • user-avatar
    Login

    Hourly Weather Kugoty

    Today, 22 February, Friday

    Time Temperature Precipitation Wind Pressure Humidity
    00:00 -11°C° 0 mm 1 mps 702 mmHg 76%
    01:00 -11°C° 0 mm 1 mps 702 mmHg 79%
    02:00 -11°C° 0 mm 1 mps 702 mmHg 79%
    03:00 -12°C° 0 mm 1 mps 702 mmHg 80%
    04:00 -12°C° 0 mm 1 mps 702 mmHg 81%
    05:00 -12°C° 0 mm 1 mps 702 mmHg 81%
    06:00 -12°C° 0 mm 1 mps 702 mmHg 81%
    07:00 -13°C° 0 mm 1 mps 702 mmHg 81%
    08:00 -10°C° 0 mm 1 mps 702 mmHg 77%
    09:00 -8°C° 0 mm 1 mps 702 mmHg 73%
    10:00 -6°C° 0 mm 2 mps 702 mmHg 69%
    11:00 -5°C° 0 mm 2 mps 702 mmHg 67%
    12:00 -4°C° 0 mm 2 mps 701 mmHg 65%
    13:00 -2°C° 0 mm 3 mps 701 mmHg 64%
    14:00 -3°C° 0 mm 2 mps 701 mmHg 67%
    15:00 -3°C° 0 mm 2 mps 701 mmHg 70%
    16:00 -4°C° 0 mm 2 mps 701 mmHg 73%
    17:00 -6°C° 0 mm 2 mps 701 mmHg 77%
    18:00 -7°C° 0 mm 2 mps 701 mmHg 81%
    19:00 -7°C° 0 mm 2 mps 701 mmHg 84%
    20:00 -7°C° 0 mm 2 mps 702 mmHg 87%
    21:00 -7°C° 0 mm 2 mps 702 mmHg 89%
    22:00 -7°C° 0 mm 2 mps 703 mmHg 92%
    23:00 -7°C° 0 mm 2 mps 703 mmHg 93%

    Tomorrow, 23 February, Saturday

    Time Temperature Precipitation Wind Pressure Humidity
    00:00 -7°C° 0 mm 2 mps 703 mmHg 94%
    01:00 -7°C° 0 mm 2 mps 704 mmHg 95%
    02:00 -8°C° 0 mm 2 mps 704 mmHg 94%
    03:00 -9°C° 0 mm 2 mps 704 mmHg 94%
    04:00 -9°C° 0 mm 2 mps 704 mmHg 94%
    05:00 -12°C° 0 mm 2 mps 704 mmHg 95%
    06:00 -13°C° 0 mm 2 mps 704 mmHg 95%
    07:00 -14°C° 0 mm 2 mps 704 mmHg 96%
    08:00 -13°C° 0 mm 2 mps 705 mmHg 90%
    09:00 -12°C° 0 mm 3 mps 705 mmHg 84%
    10:00 -9°C° 0 mm 3 mps 705 mmHg 78%
    11:00 -9°C° 0 mm 4 mps 705 mmHg 75%
    12:00 -9°C° 0 mm 4 mps 705 mmHg 72%
    13:00 -8°C° 0 mm 4 mps 705 mmHg 70%
    14:00 -8°C° 0 mm 4 mps 705 mmHg 71%
    15:00 -9°C° 0 mm 4 mps 704 mmHg 72%
    16:00 -8°C° 0 mm 3 mps 704 mmHg 73%
    17:00 -10°C° 0 mm 3 mps 704 mmHg 77%
    18:00 -12°C° 0 mm 2 mps 704 mmHg 82%
    19:00 -12°C° 0 mm 1 mps 704 mmHg 86%
    20:00 -12°C° 0 mm 1 mps 704 mmHg 86%
    21:00 -13°C° 0 mm 1 mps 704 mmHg 86%
    22:00 -13°C° 0 mm 1 mps 704 mmHg 87%
    23:00 -13°C° 0 mm 1 mps 704 mmHg 87%

    Day after tomorrow, 24 February, Sunday

    Time Temperature Precipitation Wind Pressure Humidity
    00:00 -13°C° 0 mm 1 mps 705 mmHg 88%
    01:00 -13°C° 0 mm 1 mps 705 mmHg 89%
    02:00 -14°C° 0 mm 1 mps 704 mmHg 90%
    03:00 -14°C° 0 mm 1 mps 704 mmHg 91%
    04:00 -14°C° 0 mm 1 mps 704 mmHg 92%
    05:00 -15°C° 0 mm 1 mps 704 mmHg 93%
    06:00 -15°C° 0 mm 1 mps 704 mmHg 93%
    07:00 -15°C° 0 mm 1 mps 704 mmHg 93%
    08:00 -15°C° 0 mm 2 mps 704 mmHg 90%
    09:00 -12°C° 0 mm 2 mps 704 mmHg 86%
    10:00 -9°C° 0 mm 2 mps 704 mmHg 82%
    11:00 -9°C° 0 mm 3 mps 704 mmHg 79%
    12:00 -7°C° 0 mm 3 mps 703 mmHg 77%
    13:00 -7°C° 0 mm 4 mps 703 mmHg 75%
    14:00 -6°C° 0 mm 3 mps 702 mmHg 76%
    15:00 -7°C° 0 mm 3 mps 702 mmHg 78%
    16:00 -7°C° 0 mm 3 mps 702 mmHg 80%
    17:00 -8°C° 0 mm 2 mps 702 mmHg 83%
    18:00 -9°C° 0 mm 2 mps 702 mmHg 86%
    19:00 -12°C° 0 mm 2 mps 702 mmHg 88%
    20:00 -12°C° 0 mm 2 mps 702 mmHg 88%
    21:00 -13°C° 0 mm 2 mps 701 mmHg 88%
    22:00 -11°C° 0 mm 1 mps 701 mmHg 88%
    23:00 -12°C° 0 mm 1 mps 701 mmHg 88%

    25 February, Monday

    Time Temperature Precipitation Wind Pressure Humidity
    00:00 -12°C° 0 mm 1 mps 701 mmHg 88%
    01:00 -12°C° 0 mm 1 mps 701 mmHg 88%
    02:00 -12°C° 0 mm 1 mps 701 mmHg 88%
    03:00 -13°C° 0 mm 1 mps 700 mmHg 87%
    04:00 -13°C° 0 mm 1 mps 700 mmHg 86%
    05:00 -13°C° 0 mm 1 mps 700 mmHg 86%
    06:00 -13°C° 0 mm 1 mps 700 mmHg 85%
    07:00 -13°C° 0 mm 1 mps 700 mmHg 85%
    08:00 -11°C° 0 mm 1 mps 700 mmHg 80%
    09:00 -8°C° 0 mm 1 mps 700 mmHg 76%
    10:00 -6°C° 0 mm 1 mps 700 mmHg 71%
    11:00 -5°C° 0 mm 2 mps 699 mmHg 69%
    12:00 -4°C° 0 mm 2 mps 699 mmHg 67%
    13:00 -3°C° 0 mm 2 mps 699 mmHg 65%
    14:00 -3°C° 0 mm 2 mps 698 mmHg 67%
    15:00 -3°C° 0 mm 2 mps 698 mmHg 69%
    16:00 -1°C° 0 mm 1 mps 698 mmHg 71%
    17:00 -3°C° 0 mm 1 mps 698 mmHg 73%
    18:00 -6°C° 0 mm 1 mps 698 mmHg 75%
    19:00 -9°C° 0 mm 1 mps 698 mmHg 77%
    20:00 -9°C° 0 mm 1 mps 699 mmHg 78%
    21:00 -10°C° 0 mm 1 mps 699 mmHg 78%
    22:00 -10°C° 0 mm 1 mps 699 mmHg 79%
    23:00 -10°C° 0 mm 1 mps 699 mmHg 79%

    26 February, Tuesday

    Time Temperature Precipitation Wind Pressure Humidity
    00:00 -11°C° 0 mm 1 mps 699 mmHg 80%
    01:00 -11°C° 0 mm 1 mps 699 mmHg 81%
    02:00 -12°C° 0 mm 1 mps 699 mmHg 81%
    03:00 -12°C° 0 mm 1 mps 698 mmHg 81%
    04:00 -12°C° 0 mm 1 mps 698 mmHg 81%
    05:00 -13°C° 0 mm 1 mps 698 mmHg 81%
    06:00 -13°C° 0 mm 1 mps 699 mmHg 81%
    07:00 -13°C° 0 mm 1 mps 699 mmHg 81%
    08:00 -11°C° 0 mm 1 mps 699 mmHg 77%
    09:00 -8°C° 0 mm 1 mps 699 mmHg 73%
    10:00 -6°C° 0 mm 1 mps 699 mmHg 68%
    11:00 -3°C° 0 mm 1 mps 698 mmHg 67%
    12:00 -2°C° 0 mm 1 mps 698 mmHg 65%
    13:00 -3°C° 0 mm 2 mps 698 mmHg 63%
    14:00 -2°C° 0 mm 1 mps 697 mmHg 66%
    15:00 -2°C° 0 mm 1 mps 697 mmHg 69%
    16:00 -2°C° 0 mm 1 mps 697 mmHg 73%
    17:00 -4°C° 0 mm 1 mps 697 mmHg 76%
    18:00 -8°C° 0 mm 1 mps 697 mmHg 79%
    19:00 -10°C° 0 mm 0 mps 697 mmHg 82%
    20:00 -10°C° 0 mm 0 mps 697 mmHg 82%
    21:00 -11°C° 0 mm 0 mps 697 mmHg 83%
    22:00 -11°C° 0 mm 0 mps 697 mmHg 83%
    23:00 -12°C° 0 mm 0 mps 697 mmHg 84%

    27 February, Wednesday

    Time Temperature Precipitation Wind Pressure Humidity
    00:00 -12°C° 0 mm 0 mps 697 mmHg 84%
    01:00 -12°C° 0 mm 1 mps 697 mmHg 85%
    02:00 -12°C° 0 mm 1 mps 697 mmHg 86%
    03:00 -13°C° 0 mm 1 mps 697 mmHg 87%
    04:00 -13°C° 0 mm 1 mps 697 mmHg 87%
    05:00 -13°C° 0 mm 1 mps 697 mmHg 88%
    06:00 -13°C° 0 mm 1 mps 698 mmHg 89%
    07:00 -13°C° 0 mm 1 mps 698 mmHg 89%
    08:00 -11°C° 0 mm 1 mps 698 mmHg 86%
    09:00 -9°C° 0 mm 1 mps 698 mmHg 82%
    10:00 -6°C° 0 mm 1 mps 699 mmHg 78%
    11:00 -4°C° 0 mm 1 mps 698 mmHg 77%
    12:00 -3°C° 0 mm 1 mps 698 mmHg 76%
    13:00 -2°C° 0 mm 1 mps 698 mmHg 75%
    14:00 -2°C° 0 mm 1 mps 698 mmHg 77%
    15:00 -2°C° 0 mm 1 mps 698 mmHg 79%
    16:00 -5°C° 0 mm 2 mps 697 mmHg 82%
    17:00 -6°C° 0 mm 1 mps 698 mmHg 84%
    18:00 -7°C° 0 mm 1 mps 698 mmHg 87%
    19:00 -9°C° 0 mm 1 mps 698 mmHg 90%
    20:00 -10°C° 0 mm 1 mps 698 mmHg 90%
    21:00 -10°C° 0 mm 1 mps 698 mmHg 90%
    22:00 -10°C° 0 mm 1 mps 698 mmHg 89%
    23:00 -11°C° 0 mm 1 mps 698 mmHg 90%
    Show more